Time,TemperatureF,DewpointF,PressureIn,WindDirection,WindDirectionDegrees,WindSpeedMPH,WindSpeedGustMPH,Humidity,HourlyPrecipIn,Conditions,Clouds,dailyrainin,SoftwareType,DateUTC
2013-06-05 00:13:00,63.9,64.0,29.89,SE,128,6.0,-999.0,100,-99.99,,,0.00,weatherlink.com 1.10,2013-06-04 21:13:00,
2013-06-05 00:28:00,64.3,64.0,29.89,SE,130,5.0,-999.0,100,-99.99,,,0.00,weatherlink.com 1.10,2013-06-04 21:28:00,
2013-06-05 00:43:00,64.8,65.0,29.89,ESE,106,5.0,-999.0,100,-99.99,,,0.00,weatherlink.com 1.10,2013-06-04 21:43:00,
2013-06-05 00:58:00,65.2,65.0,29.89,ESE,113,0.0,-999.0,100,-99.99,,,0.00,weatherlink.com 1.10,2013-06-04 21:58:00,
2013-06-05 01:13:00,65.0,65.0,29.89,ESE,114,0.0,-999.0,100,-99.99,,,0.00,weatherlink.com 1.10,2013-06-04 22:13:00,
2013-06-05 01:28:00,64.7,65.0,29.89,ESE,114,0.0,-999.0,100,-99.99,,,0.00,weatherlink.com 1.10,2013-06-04 22:28:00,
2013-06-05 01:43:00,64.5,65.0,29.89,ESE,114,0.0,-999.0,100,-99.99,,,0.00,weatherlink.com 1.10,2013-06-04 22:43:00,
2013-06-05 01:58:00,64.3,64.0,29.89,ESE,114,0.0,-999.0,100,-99.99,,,0.00,weatherlink.com 1.10,2013-06-04 22:58:00,
2013-06-05 02:13:00,64.5,65.0,29.89,ESE,114,0.0,-999.0,100,-99.99,,,0.00,weatherlink.com 1.10,2013-06-04 23:13:00,
2013-06-05 02:28:00,64.3,64.0,29.89,ESE,114,0.0,-999.0,100,-99.99,,,0.00,weatherlink.com 1.10,2013-06-04 23:28:00,
2013-06-05 02:43:00,63.5,64.0,29.89,ESE,114,0.0,-999.0,100,-99.99,,,0.00,weatherlink.com 1.10,2013-06-04 23:43:00,
2013-06-05 03:13:00,62.3,62.0,29.89,ENE,69,0.0,-999.0,100,-99.99,,,0.00,weatherlink.com 1.10,2013-06-05 00:13:00,
2013-06-05 03:28:00,62.0,62.0,29.89,ENE,69,0.0,-999.0,100,-99.99,,,0.00,weatherlink.com 1.10,2013-06-05 00:28:00,
2013-06-05 03:43:00,61.8,62.0,29.89,ENE,69,0.0,-999.0,100,-99.99,,,0.00,weatherlink.com 1.10,2013-06-05 00:43:00,
2013-06-05 03:58:00,61.8,62.0,29.88,ENE,69,0.0,-999.0,100,-99.99,,,0.00,weatherlink.com 1.10,2013-06-05 00:58:00,
2013-06-05 04:13:00,61.8,62.0,29.88,West,274,0.0,-999.0,100,-99.99,,,0.00,weatherlink.com 1.10,2013-06-05 01:13:00,
2013-06-05 04:28:00,61.8,62.0,29.89,WNW,295,5.0,-999.0,100,-99.99,,,0.00,weatherlink.com 1.10,2013-06-05 01:28:00,
2013-06-05 04:44:00,61.6,62.0,29.91,West,272,6.0,-999.0,100,-99.99,,,0.00,weatherlink.com 1.10,2013-06-05 01:44:00,
2013-06-05 04:59:00,61.2,60.0,29.91,WSW,246,1.0,-999.0,97,-99.99,,,0.03,weatherlink.com 1.10,2013-06-05 01:59:00,
2013-06-05 05:14:00,61.0,60.0,29.89,NE,49,0.0,-999.0,95,-99.99,,,0.03,weatherlink.com 1.10,2013-06-05 02:14:00,
2013-06-05 05:29:00,60.7,59.0,29.89,NW,308,0.0,-999.0,95,-99.99,,,0.03,weatherlink.com 1.10,2013-06-05 02:29:00,
2013-06-05 05:44:00,60.7,60.0,29.90,West,277,0.0,-999.0,96,-99.99,,,0.03,weatherlink.com 1.10,2013-06-05 02:44:00,
2013-06-05 05:59:00,60.9,60.0,29.90,West,268,0.0,-999.0,97,-99.99,,,0.03,weatherlink.com 1.10,2013-06-05 02:59:00,
2013-06-05 06:14:00,61.3,61.0,29.91,NNE,30,5.0,-999.0,97,-99.99,,,0.03,weatherlink.com 1.10,2013-06-05 03:14:00,
2013-06-05 06:29:00,61.3,61.0,29.91,NNW,335,0.0,-999.0,99,-99.99,,,0.03,weatherlink.com 1.10,2013-06-05 03:29:00,
2013-06-05 06:44:00,61.3,61.0,29.92,WNW,292,0.0,-999.0,100,-99.99,,,0.03,weatherlink.com 1.10,2013-06-05 03:44:00,
2013-06-05 06:59:00,61.3,61.0,29.92,WNW,296,0.0,-999.0,100,-99.99,,,0.03,weatherlink.com 1.10,2013-06-05 03:59:00,
2013-06-05 07:14:00,61.5,62.0,29.93,West,268,4.0,-999.0,100,-99.99,,,0.03,weatherlink.com 1.10,2013-06-05 04:14:00,
2013-06-05 07:29:00,61.5,62.0,29.93,West,274,0.0,-999.0,100,-99.99,,,0.03,weatherlink.com 1.10,2013-06-05 04:29:00,
2013-06-05 07:44:00,61.5,62.0,29.93,ESE,102,0.0,-999.0,100,-99.99,,,0.04,weatherlink.com 1.10,2013-06-05 04:44:00,
2013-06-05 07:59:00,61.5,62.0,29.94,ESE,106,0.0,-999.0,100,-99.99,,,0.06,weatherlink.com 1.10,2013-06-05 04:59:00,
2013-06-05 08:15:00,61.3,61.0,29.94,ESE,119,5.0,-999.0,100,-99.99,,,0.07,weatherlink.com 1.10,2013-06-05 05:15:00,
2013-06-05 08:30:00,61.5,62.0,29.93,North,3,4.0,-999.0,100,-99.99,,,0.07,weatherlink.com 1.10,2013-06-05 05:30:00,
2013-06-05 08:45:00,61.0,61.0,29.94,NNW,343,0.0,-999.0,100,-99.99,,,0.07,weatherlink.com 1.10,2013-06-05 05:45:00,
2013-06-05 09:00:00,61.3,61.0,29.94,SW,232,0.0,-999.0,100,-99.99,,,0.08,weatherlink.com 1.10,2013-06-05 06:00:00,
2013-06-05 09:15:00,64.0,64.0,29.94,SSW,196,0.0,-999.0,100,-99.99,,,0.08,weatherlink.com 1.10,2013-06-05 06:15:00,
2013-06-05 09:30:00,66.8,67.0,29.94,SSW,196,0.0,-999.0,100,-99.99,,,0.08,weatherlink.com 1.10,2013-06-05 06:30:00,
2013-06-05 09:45:00,68.8,69.0,29.95,South,186,0.0,-999.0,100,-99.99,,,0.08,weatherlink.com 1.10,2013-06-05 06:45:00,
2013-06-05 10:00:00,68.9,69.0,29.95,WSW,241,0.0,-999.0,100,-99.99,,,0.08,weatherlink.com 1.10,2013-06-05 07:00:00,
2013-06-05 10:15:00,68.8,69.0,29.96,SW,217,3.0,-999.0,100,-99.99,,,0.08,weatherlink.com 1.10,2013-06-05 07:15:00,
2013-06-05 10:30:00,69.4,64.0,29.96,SSW,212,5.0,-999.0,84,-99.99,,,0.08,weatherlink.com 1.10,2013-06-05 07:30:00,
2013-06-05 10:45:00,72.0,72.0,29.96,SSW,202,2.0,-999.0,100,-99.99,,,0.08,weatherlink.com 1.10,2013-06-05 07:45:00,
2013-06-05 11:00:00,73.9,74.0,29.96,WSW,253,4.0,-999.0,100,-99.99,,,0.08,weatherlink.com 1.10,2013-06-05 08:00:00,
2013-06-05 11:15:00,75.4,62.0,29.95,South,189,0.0,-999.0,63,-99.99,,,0.08,weatherlink.com 1.10,2013-06-05 08:15:00,
2013-06-05 11:30:00,75.4,62.0,29.96,SSE,152,5.0,-999.0,63,-99.99,,,0.08,weatherlink.com 1.10,2013-06-05 08:30:00,
2013-06-05 11:46:00,76.0,62.0,29.96,WSW,241,6.0,-999.0,63,-99.99,,,0.08,weatherlink.com 1.10,2013-06-05 08:46:00,
2013-06-05 12:01:00,76.1,61.0,29.95,SSE,148,5.0,-999.0,59,-99.99,,,0.08,weatherlink.com 1.10,2013-06-05 09:01:00,
2013-06-05 12:16:00,75.8,60.0,29.95,SSE,164,0.0,-999.0,58,-99.99,,,0.08,weatherlink.com 1.10,2013-06-05 09:16:00,
2013-06-05 12:31:00,77.0,60.0,29.94,SW,217,3.0,-999.0,56,-99.99,,,0.08,weatherlink.com 1.10,2013-06-05 09:31:00,
2013-06-05 13:01:00,77.9,58.0,29.93,SSE,154,0.0,-999.0,51,-99.99,,,0.08,weatherlink.com 1.10,2013-06-05 10:01:00,
2013-06-05 13:16:00,77.0,57.0,29.93,SE,126,5.0,-999.0,51,-99.99,,,0.08,weatherlink.com 1.10,2013-06-05 10:16:00,
2013-06-05 13:31:00,76.5,57.0,29.93,SSE,162,6.0,-999.0,52,-99.99,,,0.08,weatherlink.com 1.10,2013-06-05 10:31:00,
2013-06-05 13:46:00,76.7,57.0,29.93,SSW,202,2.0,-999.0,50,-99.99,,,0.08,weatherlink.com 1.10,2013-06-05 10:46:00,
2013-06-05 14:01:00,77.2,55.0,29.93,WNW,282,5.0,-999.0,47,-99.99,,,0.08,weatherlink.com 1.10,2013-06-05 11:01:00,
2013-06-05 14:16:00,77.4,56.0,29.93,East,83,3.0,-999.0,48,-99.99,,,0.08,weatherlink.com 1.10,2013-06-05 11:16:00,
2013-06-05 14:31:00,73.3,59.0,29.93,East,99,0.0,-999.0,62,-99.99,,,0.08,weatherlink.com 1.10,2013-06-05 11:31:00,
2013-06-05 14:46:00,73.3,63.0,29.93,NE,40,11.0,-999.0,71,-99.99,,,0.08,weatherlink.com 1.10,2013-06-05 11:46:00,
2013-06-05 15:02:00,71.5,64.0,29.93,NNE,27,7.0,-999.0,77,-99.99,,,0.08,weatherlink.com 1.10,2013-06-05 12:02:00,
2013-06-05 15:17:00,70.8,64.0,29.93,North,1,10.0,-999.0,78,-99.99,,,0.08,weatherlink.com 1.10,2013-06-05 12:17:00,
2013-06-05 15:32:00,70.3,64.0,29.93,NNE,23,4.0,-999.0,80,-99.99,,,0.08,weatherlink.com 1.10,2013-06-05 12:32:00,
2013-06-05 15:47:00,71.3,65.0,29.93,NNE,24,6.0,-999.0,80,-99.99,,,0.08,weatherlink.com 1.10,2013-06-05 12:47:00,
2013-06-05 16:02:00,72.0,64.0,29.92,NE,45,0.0,-999.0,77,-99.99,,,0.08,weatherlink.com 1.10,2013-06-05 13:02:00,
2013-06-05 16:17:00,73.2,64.0,29.93,NE,40,1.0,-999.0,74,-99.99,,,0.08,weatherlink.com 1.10,2013-06-05 13:17:00,
2013-06-05 16:32:00,74.4,60.0,29.93,SSE,150,1.0,-999.0,61,-99.99,,,0.08,weatherlink.com 1.10,2013-06-05 13:32:00,
2013-06-05 16:47:00,73.7,62.0,29.94,North,6,5.0,-999.0,68,-99.99,,,0.08,weatherlink.com 1.10,2013-06-05 13:47:00,
2013-06-05 17:02:00,72.3,62.0,29.93,NNE,18,8.0,-999.0,71,-99.99,,,0.08,weatherlink.com 1.10,2013-06-05 14:02:00,
2013-06-05 17:17:00,71.3,63.0,29.93,North,0,5.0,-999.0,74,-99.99,,,0.08,weatherlink.com 1.10,2013-06-05 14:17:00,
2013-06-05 17:32:00,71.3,63.0,29.93,NNE,21,5.0,-999.0,74,-99.99,,,0.08,weatherlink.com 1.10,2013-06-05 14:32:00,
2013-06-05 17:47:00,70.4,62.0,29.92,NNE,23,8.0,-999.0,74,-99.99,,,0.08,weatherlink.com 1.10,2013-06-05 14:47:00,
2013-06-05 18:02:00,70.3,61.0,29.93,NNE,16,4.0,-999.0,73,-99.99,,,0.08,weatherlink.com 1.10,2013-06-05 15:02:00,
2013-06-05 18:17:00,70.1,61.0,29.93,North,0,2.0,-999.0,72,-99.99,,,0.08,weatherlink.com 1.10,2013-06-05 15:17:00,
2013-06-05 18:33:00,70.1,61.0,29.93,NNE,24,0.0,-999.0,74,-99.99,,,0.08,weatherlink.com 1.10,2013-06-05 15:33:00,
2013-06-05 18:48:00,69.8,62.0,29.94,NNE,23,0.0,-999.0,76,-99.99,,,0.08,weatherlink.com 1.10,2013-06-05 15:48:00,
2013-06-05 19:03:00,69.4,62.0,29.94,NE,41,0.0,-999.0,76,-99.99,,,0.08,weatherlink.com 1.10,2013-06-05 16:03:00,
2013-06-05 19:18:00,69.1,62.0,29.95,NE,37,2.0,-999.0,77,-99.99,,,0.08,weatherlink.com 1.10,2013-06-05 16:18:00,
2013-06-05 19:33:00,68.4,62.0,29.95,NE,35,4.0,-999.0,79,-99.99,,,0.08,weatherlink.com 1.10,2013-06-05 16:33:00,
2013-06-05 19:48:00,68.3,62.0,29.95,NNE,20,0.0,-999.0,81,-99.99,,,0.08,weatherlink.com 1.10,2013-06-05 16:48:00,
2013-06-05 20:03:00,68.3,62.0,29.95,NNE,30,0.0,-999.0,81,-99.99,,,0.08,weatherlink.com 1.10,2013-06-05 17:03:00,
2013-06-05 20:18:00,68.1,62.0,29.95,SSE,154,5.0,-999.0,82,-99.99,,,0.08,weatherlink.com 1.10,2013-06-05 17:18:00,
2013-06-05 20:33:00,68.6,63.0,29.95,SSW,199,5.0,-999.0,83,-99.99,,,0.08,weatherlink.com 1.10,2013-06-05 17:33:00,
2013-06-05 20:48:00,68.4,63.0,29.95,SSW,209,5.0,-999.0,83,-99.99,,,0.08,weatherlink.com 1.10,2013-06-05 17:48:00,
2013-06-05 21:03:00,68.4,63.0,29.95,SSE,158,3.0,-999.0,84,-99.99,,,0.08,weatherlink.com 1.10,2013-06-05 18:03:00,
2013-06-05 21:18:00,67.9,63.0,29.95,South,181,0.0,-999.0,85,-99.99,,,0.08,weatherlink.com 1.10,2013-06-05 18:18:00,
2013-06-05 21:33:00,67.3,62.0,29.95,SW,234,5.0,-999.0,84,-99.99,,,0.08,weatherlink.com 1.10,2013-06-05 18:33:00,
2013-06-05 21:48:00,66.6,61.0,29.96,SSW,202,0.0,-999.0,82,-99.99,,,0.08,weatherlink.com 1.10,2013-06-05 18:48:00,
2013-06-05 22:04:00,66.4,60.0,29.95,SSW,196,0.0,-999.0,81,-99.99,,,0.08,weatherlink.com 1.10,2013-06-05 19:04:00,
2013-06-05 22:19:00,66.3,61.0,29.95,SSW,203,0.0,-999.0,82,-99.99,,,0.08,weatherlink.com 1.10,2013-06-05 19:19:00,
2013-06-05 22:34:00,66.0,60.0,29.95,SW,234,2.0,-999.0,81,-99.99,,,0.08,weatherlink.com 1.10,2013-06-05 19:34:00,
2013-06-05 22:49:00,66.0,60.0,29.95,SW,219,0.0,-999.0,80,-99.99,,,0.08,weatherlink.com 1.10,2013-06-05 19:49:00,
2013-06-05 23:04:00,65.6,60.0,29.96,SW,219,0.0,-999.0,81,-99.99,,,0.08,weatherlink.com 1.10,2013-06-05 20:04:00,
2013-06-05 23:19:00,65.6,60.0,29.96,SW,219,0.0,-999.0,81,-99.99,,,0.08,weatherlink.com 1.10,2013-06-05 20:19:00,
2013-06-05 23:34:00,65.5,60.0,29.96,SW,219,0.0,-999.0,82,-99.99,,,0.08,weatherlink.com 1.10,2013-06-05 20:34:00,
2013-06-05 23:49:00,65.2,60.0,29.96,South,181,0.0,-999.0,83,-99.99,,,0.00,weatherlink.com 1.10,2013-06-05 20:49:00,